ABG7139 ULLI-UMKK

Flight info

Callsign ABG7139
Flight time 1h 56m
Altitude 36000
Route UTETA1D UTETA DCT PISIS DCT ARANS/N0463F360 DCT PIDIN DCT PISIM DCT PIRUX DCT PIVAX/N0460F370 DCT GARSO DCT AGONA DCT TURIP TURIP3G
Aircraft B738/M-SADE2E3FGHIRWXY/SB1

Departure

Time 2026-05-04 08:35
Airport Pulkovo Airport (ULLI)

Arrival

Time 2026-05-04 10:31
Airport Khrabrovo Airport (UMKK)
Time Latitude Longitude Altitude Speed Heading
2026-05-04 08:14 59.80111 30.26480 80 ft 0 kts 287°
2026-05-04 08:31 59.80228 30.26399 80 ft 20 kts 16°
2026-05-04 08:33 59.80779 30.24609 63 ft 21 kts 348°
2026-05-04 08:33 59.80930 30.24567 68 ft 22 kts
2026-05-04 08:35 59.79002 30.37911 1852 ft 231 kts 108°
2026-05-04 08:35 59.78524 30.40990 2532 ft 236 kts 108°
2026-05-04 08:35 59.78050 30.44115 3471 ft 236 kts 108°
2026-05-04 08:35 59.77570 30.47257 4317 ft 239 kts 109°
2026-05-04 08:37 59.82733 30.60851 8174 ft 263 kts 358°
2026-05-04 08:37 59.84501 30.60230 8797 ft 256 kts 330°
2026-05-04 08:37 59.85489 30.58966 9125 ft 257 kts 312°
2026-05-04 08:40 59.86647 30.34857 13784 ft 260 kts 259°
2026-05-04 08:40 59.86307 30.31263 14415 ft 262 kts 260°
2026-05-04 08:40 59.85998 30.27991 14793 ft 272 kts 260°
2026-05-04 08:41 59.85627 30.24050 14932 ft 291 kts 260°
2026-05-04 08:41 59.85240 30.19953 15078 ft 310 kts 260°
2026-05-04 08:41 59.84963 30.17040 15172 ft 322 kts 260°
2026-05-04 08:41 59.84535 30.12541 15358 ft 337 kts 260°
2026-05-04 08:42 59.84092 30.07916 15856 ft 341 kts 260°
2026-05-04 08:42 59.83501 30.01772 16697 ft 343 kts 260°
2026-05-04 08:42 59.83196 29.98619 17103 ft 344 kts 260°
2026-05-04 08:42 59.82743 29.93940 17658 ft 346 kts 260°
2026-05-04 08:43 59.82291 29.89292 18251 ft 347 kts 260°
2026-05-04 08:43 59.81831 29.84574 18773 ft 350 kts 260°
2026-05-04 08:43 59.81366 29.79806 19292 ft 352 kts 260°
2026-05-04 08:43 59.80896 29.75014 19734 ft 356 kts 260°
2026-05-04 08:44 59.80417 29.70149 20193 ft 359 kts 260°
2026-05-04 08:44 59.79935 29.65275 20708 ft 361 kts 260°
2026-05-04 08:46 59.76403 29.30143 23571 ft 380 kts 260°
2026-05-04 08:46 59.75877 29.25000 23955 ft 382 kts 259°
2026-05-04 08:46 59.75346 29.19815 24285 ft 385 kts 259°
2026-05-04 08:46 59.74809 29.14595 24641 ft 387 kts 259°
2026-05-04 08:47 59.74266 29.09350 25039 ft 387 kts 259°
2026-05-04 08:47 59.73816 29.04089 25392 ft 388 kts 267°
2026-05-04 08:47 59.73962 28.98740 25709 ft 391 kts 280°
2026-05-04 08:47 59.74686 28.93526 26082 ft 393 kts 285°
2026-05-04 08:48 59.75537 28.88367 26406 ft 395 kts 286°
2026-05-04 08:48 59.76412 28.83189 26712 ft 397 kts 286°
2026-05-04 08:48 59.77290 28.77980 27000 ft 399 kts 286°
2026-05-04 08:48 59.78149 28.72820 27327 ft 399 kts 286°
2026-05-04 08:49 59.79022 28.67505 27617 ft 401 kts 285°
2026-05-04 08:50 59.84116 28.35693 29447 ft 401 kts 285°
2026-05-04 08:50 59.84950 28.30412 29823 ft 399 kts 285°
2026-05-04 08:51 59.85781 28.25143 30139 ft 399 kts 284°
2026-05-04 08:51 59.86606 28.19886 30423 ft 398 kts 284°
2026-05-04 08:51 59.87427 28.14641 30777 ft 395 kts 284°
2026-05-04 08:51 59.88240 28.09438 31163 ft 392 kts 284°
2026-05-04 08:52 59.89044 28.04273 31508 ft 390 kts 284°
2026-05-04 08:52 59.89843 27.99116 31777 ft 389 kts 284°
2026-05-04 08:52 59.90640 27.93962 32045 ft 388 kts 284°
2026-05-04 08:52 59.91432 27.88825 32313 ft 387 kts 284°
2026-05-04 08:53 59.92217 27.83721 32620 ft 384 kts 284°
2026-05-04 08:54 59.97607 27.48244 34217 ft 380 kts 284°
2026-05-04 08:55 59.98364 27.43193 34318 ft 381 kts 284°
2026-05-04 08:55 59.99114 27.38177 34462 ft 382 kts 284°
2026-05-04 08:55 59.99874 27.33087 34619 ft 382 kts 284°
2026-05-04 08:55 60.00634 27.27983 34713 ft 384 kts 284°
2026-05-04 08:57 60.04211 26.91339 35557 ft 386 kts 263°
2026-05-04 09:01 59.96008 26.17476 35723 ft 390 kts 256°
2026-05-04 09:01 59.94809 26.07013 35722 ft 390 kts 256°
2026-05-04 09:02 59.93579 25.96400 35733 ft 390 kts 256°
2026-05-04 09:02 59.92346 25.85855 35731 ft 390 kts 256°
2026-05-04 09:03 59.91106 25.75335 35731 ft 390 kts 256°
2026-05-04 09:03 59.89856 25.64795 35732 ft 390 kts 256°
2026-05-04 09:04 59.88600 25.54278 35727 ft 391 kts 256°
2026-05-04 09:04 59.87334 25.43757 35733 ft 391 kts 256°
2026-05-04 09:05 59.86057 25.33229 35729 ft 390 kts 256°
2026-05-04 09:05 59.84776 25.22732 35729 ft 391 kts 256°
2026-05-04 09:06 59.83487 25.12239 35732 ft 391 kts 256°
2026-05-04 09:08 59.78241 24.70337 35734 ft 390 kts 255°
2026-05-04 09:08 59.76910 24.59883 35731 ft 390 kts 255°
2026-05-04 09:09 59.75581 24.49504 35730 ft 390 kts 255°
2026-05-04 09:09 59.74174 24.39105 35730 ft 390 kts 253°
2026-05-04 09:10 59.72601 24.28835 35733 ft 389 kts 252°
2026-05-04 09:10 59.71012 24.18588 35728 ft 389 kts 252°
2026-05-04 09:11 59.69435 24.08347 35722 ft 388 kts 252°
2026-05-04 09:11 59.67861 23.98123 35720 ft 388 kts 252°
2026-05-04 09:12 59.66284 23.87925 35721 ft 387 kts 252°
2026-05-04 09:14 59.59917 23.47375 35734 ft 386 kts 252°
2026-05-04 09:14 59.58306 23.37260 35731 ft 386 kts 252°
2026-05-04 09:15 59.56686 23.27133 35734 ft 388 kts 252°
2026-05-04 09:15 59.55035 23.16998 35733 ft 389 kts 249°
2026-05-04 09:17 59.44550 22.73375 35744 ft 392 kts 244°
2026-05-04 09:18 59.42206 22.63771 35747 ft 392 kts 244°
2026-05-04 09:18 59.39841 22.54125 35749 ft 392 kts 244°
2026-05-04 09:19 59.37471 22.44501 35748 ft 391 kts 244°
2026-05-04 09:19 59.35098 22.34904 35746 ft 390 kts 244°
2026-05-04 09:20 59.33128 22.26973 35749 ft 390 kts 244°
2026-05-04 09:20 59.30753 22.17444 35749 ft 389 kts 244°
2026-05-04 09:21 59.28372 22.07935 35751 ft 388 kts 243°
2026-05-04 09:21 59.25989 21.98461 35747 ft 388 kts 243°
2026-05-04 09:22 59.23600 21.88999 35748 ft 387 kts 243°
2026-05-04 09:22 59.21211 21.79579 35751 ft 387 kts 243°
2026-05-04 09:23 59.18814 21.70168 35750 ft 387 kts 243°
2026-05-04 09:23 59.16412 21.60774 35752 ft 387 kts 243°
2026-05-04 09:25 59.06604 21.23139 35738 ft 391 kts 235°
2026-05-04 09:26 59.04800 21.19181 35764 ft 393 kts 224°
2026-05-04 09:26 59.02655 21.15885 35749 ft 396 kts 216°
2026-05-04 09:26 59.00197 21.13396 35740 ft 403 kts 204°
2026-05-04 09:26 58.97537 21.11643 35760 ft 404 kts 203°
2026-05-04 09:27 58.92176 21.08298 35751 ft 405 kts 202°
2026-05-04 09:27 58.86805 21.04938 35748 ft 406 kts 203°
2026-05-04 09:28 58.81441 21.01545 35745 ft 406 kts 203°
2026-05-04 09:28 58.76078 20.98131 35748 ft 406 kts 203°
2026-05-04 09:29 58.70714 20.94718 35750 ft 405 kts 203°
2026-05-04 09:29 58.65354 20.91322 35747 ft 405 kts 203°
2026-05-04 09:30 58.59998 20.87939 35751 ft 405 kts 203°
2026-05-04 09:30 58.54646 20.84570 35749 ft 405 kts 203°
2026-05-04 09:31 58.49298 20.81214 35751 ft 404 kts 203°
2026-05-04 09:31 58.43964 20.77878 35749 ft 403 kts 203°
2026-05-04 09:32 58.38623 20.74547 35749 ft 403 kts 202°
2026-05-04 09:34 58.17233 20.61318 35739 ft 404 kts 202°
2026-05-04 09:34 58.11888 20.58036 35739 ft 404 kts 202°
2026-05-04 09:35 58.06529 20.54758 35748 ft 404 kts 202°
2026-05-04 09:35 58.01119 20.51460 35748 ft 404 kts 202°
2026-05-04 09:37 57.79599 20.38442 35750 ft 406 kts 202°
2026-05-04 09:38 57.74222 20.35214 35750 ft 406 kts 202°
2026-05-04 09:38 57.68842 20.31995 35747 ft 406 kts 202°
2026-05-04 09:39 57.63462 20.28787 35756 ft 406 kts 202°
2026-05-04 09:39 57.58119 20.25610 35761 ft 406 kts 202°
2026-05-04 09:40 57.52737 20.22420 35761 ft 406 kts 202°
2026-05-04 09:40 57.47283 20.19194 35771 ft 406 kts 202°
2026-05-04 09:42 57.25665 20.06519 35777 ft 407 kts 202°
2026-05-04 09:43 57.20263 20.03376 35775 ft 406 kts 202°
2026-05-04 09:43 57.14872 20.00248 35779 ft 406 kts 201°
2026-05-04 09:44 57.09470 19.97122 35775 ft 407 kts 201°
2026-05-04 09:46 56.87801 19.94011 35784 ft 421 kts 179°
2026-05-04 09:46 56.81981 19.95212 35791 ft 421 kts 179°
2026-05-04 09:47 56.76152 19.96372 35790 ft 421 kts 179°
2026-05-04 09:49 56.52793 20.00912 35791 ft 422 kts 179°
2026-05-04 09:51 56.32389 20.04836 35822 ft 421 kts 179°
2026-05-04 09:51 56.26528 20.05956 35827 ft 421 kts 179°
2026-05-04 09:52 56.20707 20.07064 35831 ft 420 kts 179°
2026-05-04 09:52 56.14848 20.08315 35827 ft 424 kts 174°
2026-05-04 09:53 56.09174 20.11561 35837 ft 430 kts 166°
2026-05-04 09:53 56.03549 20.15262 35839 ft 431 kts 166°
2026-05-04 09:54 55.97906 20.18922 35844 ft 431 kts 166°
2026-05-04 09:54 55.92258 20.22534 35837 ft 431 kts 166°
2026-05-04 09:55 55.86605 20.26127 35841 ft 431 kts 166°
2026-05-04 09:55 55.80958 20.29703 35853 ft 431 kts 166°
2026-05-04 09:56 55.75307 20.33270 35865 ft 431 kts 166°
2026-05-04 09:56 55.69650 20.36833 35862 ft 431 kts 166°
2026-05-04 09:57 55.63986 20.40389 35878 ft 432 kts 166°
2026-05-04 09:57 55.58318 20.43938 35868 ft 432 kts 166°
2026-05-04 09:58 55.52646 20.47478 35863 ft 433 kts 166°
2026-05-04 09:58 55.47000 20.50992 35870 ft 433 kts 166°
2026-05-04 10:00 55.26932 20.54478 34847 ft 394 kts 202°
2026-05-04 10:00 55.24216 20.53290 34032 ft 404 kts 192°
2026-05-04 10:02 55.07722 20.59572 31232 ft 422 kts 123°
2026-05-04 10:04 55.08910 20.92379 29437 ft 381 kts 119°
2026-05-04 10:04 55.07579 20.96241 29080 ft 365 kts 138°
2026-05-04 10:04 55.05698 20.99037 28690 ft 351 kts 156°
2026-05-04 10:04 55.03497 21.00629 28321 ft 337 kts 173°
2026-05-04 10:05 55.01242 21.01016 27979 ft 325 kts 189°
2026-05-04 10:05 54.99060 21.00309 27636 ft 315 kts 204°
2026-05-04 10:05 54.97070 20.98700 27269 ft 309 kts 214°
2026-05-04 10:05 54.95373 20.96456 26898 ft 304 kts 229°
2026-05-04 10:06 54.94231 20.93410 26434 ft 304 kts 252°
2026-05-04 10:06 54.94042 20.89763 25927 ft 311 kts 270°
2026-05-04 10:06 54.93982 20.86042 25550 ft 306 kts 252°
2026-05-04 10:08 54.83344 20.87556 23183 ft 321 kts 162°
2026-05-04 10:08 54.81302 20.89080 22854 ft 320 kts 162°
2026-05-04 10:08 54.79260 20.90628 22513 ft 319 kts 162°
2026-05-04 10:08 54.77234 20.92177 22193 ft 317 kts 162°
2026-05-04 10:09 54.75377 20.94287 21787 ft 329 kts 138°
2026-05-04 10:09 54.74087 20.97607 21459 ft 337 kts 118°
2026-05-04 10:09 54.73409 21.01509 21155 ft 341 kts 101°
2026-05-04 10:09 54.73397 21.05616 20838 ft 344 kts 82°
2026-05-04 10:10 54.74131 21.09555 20460 ft 346 kts 60°
2026-05-04 10:10 54.75576 21.12827 20106 ft 342 kts 39°
2026-05-04 10:10 54.77539 21.15040 19792 ft 334 kts 18°
2026-05-04 10:10 54.79750 21.16005 19462 ft 324 kts 358°
2026-05-04 10:11 54.81925 21.15741 19132 ft 312 kts 339°
2026-05-04 10:11 54.83926 21.14373 18796 ft 301 kts 322°
2026-05-04 10:11 54.85526 21.12160 18481 ft 290 kts 306°
2026-05-04 10:11 54.86718 21.09453 18178 ft 282 kts 295°
2026-05-04 10:12 54.87541 21.06417 17858 ft 274 kts 281°
2026-05-04 10:12 54.87831 21.03191 17541 ft 269 kts 271°
2026-05-04 10:12 54.88127 20.99983 17210 ft 272 kts 283°
2026-05-04 10:12 54.88951 20.97004 16910 ft 278 kts 300°
2026-05-04 10:13 54.90287 20.94536 16627 ft 284 kts 315°
2026-05-04 10:13 54.91942 20.92614 16316 ft 288 kts 324°
2026-05-04 10:13 54.93733 20.91013 16002 ft 290 kts 327°
2026-05-04 10:13 54.95563 20.89538 15701 ft 290 kts 328°
2026-05-04 10:14 54.97436 20.88232 15391 ft 294 kts 341°
2026-05-04 10:14 54.99510 20.88082 15069 ft 305 kts
2026-05-04 10:16 55.00952 21.07011 12735 ft 276 kts 162°
2026-05-04 10:16 54.99215 21.08372 12445 ft 273 kts 164°
2026-05-04 10:16 54.97468 21.09685 12114 ft 273 kts 164°
2026-05-04 10:16 54.95728 21.11007 11839 ft 272 kts 163°
2026-05-04 10:17 54.94021 21.12314 11582 ft 270 kts 163°
2026-05-04 10:17 54.92304 21.13635 11295 ft 269 kts 163°
2026-05-04 10:19 54.82626 21.09316 9357 ft 238 kts 252°
2026-05-04 10:19 54.82364 21.06476 9042 ft 241 kts 267°
2026-05-04 10:19 54.82616 21.03578 8710 ft 248 kts 284°
2026-05-04 10:19 54.83377 21.00869 8467 ft 252 kts 298°
2026-05-04 10:20 54.84514 20.98543 8209 ft 258 kts 315°
2026-05-04 10:20 54.86089 20.96942 7938 ft 264 kts 330°
2026-05-04 10:20 54.87767 20.95627 7671 ft 264 kts 330°
2026-05-04 10:20 54.89418 20.94341 7421 ft 263 kts 330°
2026-05-04 10:21 54.91088 20.93046 7191 ft 261 kts 330°
2026-05-04 10:21 54.92744 20.91756 6908 ft 261 kts 330°
2026-05-04 10:21 54.94403 20.90465 6614 ft 261 kts 330°
2026-05-04 10:21 54.96052 20.89179 6364 ft 259 kts 330°
2026-05-04 10:22 54.99613 20.88582 5788 ft 275 kts 17°
2026-05-04 10:22 55.01240 20.90338 5489 ft 279 kts 45°
2026-05-04 10:22 55.02259 20.93162 5209 ft 275 kts 75°
2026-05-04 10:23 55.02422 20.96416 4901 ft 269 kts 104°
2026-05-04 10:23 55.01753 20.99346 4665 ft 256 kts 130°
2026-05-04 10:25 54.92175 21.02571 2854 ft 209 kts 246°
2026-05-04 10:25 54.91877 21.00143 2584 ft 207 kts 269°
2026-05-04 10:25 54.92165 20.97707 2332 ft 206 kts 290°
2026-05-04 10:25 54.92951 20.95645 2166 ft 205 kts 307°
2026-05-04 10:26 54.93902 20.93809 2091 ft 204 kts 309°
2026-05-04 10:26 54.94861 20.92005 2043 ft 202 kts 309°
2026-05-04 10:26 54.95770 20.90196 1986 ft 193 kts 298°
2026-05-04 10:26 54.96099 20.88095 2013 ft 178 kts 268°
2026-05-04 10:27 54.95884 20.86004 1990 ft 173 kts 244°
2026-05-04 10:27 54.95387 20.84114 1998 ft 171 kts 245°
2026-05-04 10:27 54.94910 20.82228 1990 ft 169 kts 245°
2026-05-04 10:27 54.94438 20.80369 1982 ft 168 kts 245°
2026-05-04 10:28 54.93964 20.78488 1996 ft 168 kts 246°
2026-05-04 10:28 54.93504 20.76617 1827 ft 157 kts 245°
2026-05-04 10:28 54.93073 20.74940 1631 ft 146 kts 244°
2026-05-04 10:28 54.92657 20.73336 1437 ft 146 kts 244°
2026-05-04 10:29 54.92242 20.71736 1256 ft 146 kts 244°
2026-05-04 10:29 54.91824 20.70123 1045 ft 146 kts 244°
2026-05-04 10:29 54.91408 20.68530 857 ft 144 kts 244°
2026-05-04 10:29 54.90999 20.66933 660 ft 145 kts 245°
2026-05-04 10:30 54.90579 20.65331 468 ft 145 kts 245°
2026-05-04 10:30 54.90173 20.63750 272 ft 141 kts 245°
2026-05-04 10:30 54.89771 20.62198 70 ft 142 kts 246°
2026-05-04 10:30 54.89391 20.60726 23 ft 114 kts 244°
2026-05-04 10:31 54.89152 20.59807 21 ft 53 kts 246°
2026-05-04 10:31 54.89053 20.59426 27 ft 30 kts 244°
2026-05-04 10:32 54.88713 20.58909 25 ft 11 kts 240°
2026-05-04 10:33 54.88694 20.58848 25 ft 4 kts 246°
2026-05-04 10:33 54.88666 20.58763 28 ft 12 kts 217°
2026-05-04 10:33 54.88568 20.58809 27 ft 14 kts 157°
2026-05-04 10:33 54.88503 20.58730 26 ft 14 kts 244°
2026-05-04 10:34 54.88465 20.58593 26 ft 13 kts 241°
2026-05-04 10:34 54.88431 20.58507 26 ft 9 kts 208°
2026-05-04 10:34 54.88389 20.58520 28 ft 2 kts 155°
2026-05-04 10:34 54.88381 20.58527 26 ft 0 kts 155°